Theta_e
351 352 353 354 355 353 355 355 349 346 348 349 349 349 349 349 348 347 345 343 344 345 344 341 340 339 339 340 340 339 338 338 338 337 337 338 339 339 339 338 338 338 338 337 337 337 337 337 337 337 339 340 340 341 341 341 341 340 340 341 340 340 341
353 353 353 353 354 353 355 352 347 346 348 347 348 349 349 350 349 346 344 343 344 344 343 341 340 340 339 339 339 338 337 337 337 337 337 337 338 338 338 338 338 338 338 337 337 337 337 337 337 337 338 338 339 340 340 339 340 339 338 338 338 339 339
353 353 353 353 354 354 354 351 347 347 346 345 347 348 349 351 349 346 345 344 344 344 342 340 340 340 340 339 339 339 338 336 336 336 335 335 336 336 336 337 337 337 337 337 336 336 336 336 337 337 337 337 338 339 339 338 338 338 337 337 337 338 338
355 354 353 354 355 355 355 350 346 345 344 345 346 347 349 350 347 346 345 344 344 343 342 341 341 341 341 340 339 339 338 337 337 336 335 335 335 335 336 336 337 336 336 336 336 336 336 336 336 336 337 337 338 338 338 339 338 338 338 338 337 337 338
357 355 354 354 354 355 355 350 345 344 343 344 346 347 348 348 346 345 345 344 342 342 342 342 342 342 341 341 339 339 338 337 337 336 335 335 335 335 336 336 336 336 336 335 335 335 336 336 336 336 336 337 337 336 336 337 337 337 338 337 337 336 336
357 356 354 354 354 354 354 350 345 343 343 344 346 348 346 344 344 343 343 343 342 341 343 343 342 342 342 341 341 339 339 337 337 336 336 336 336 335 335 335 335 335 335 335 335 335 336 336 336 336 337 336 336 335 335 336 336 336 336 336 336 336 335
356 356 354 353 353 353 353 349 344 342 343 344 346 346 342 340 341 339 340 342 342 341 343 343 343 342 342 341 341 340 338 337 337 336 336 335 335 335 335 335 335 335 335 335 335 335 336 336 336 337 337 336 336 336 336 336 337 336 336 336 336 335 335
356 357 354 353 352 350 352 349 344 342 343 344 345 343 339 338 338 337 338 340 339 340 341 340 341 343 342 341 340 339 338 336 336 335 335 335 335 334 334 334 334 334 335 334 334 335 336 336 336 337 338 337 337 337 337 336 337 336 336 336 336 336 335
356 357 354 353 349 349 352 350 345 344 344 346 346 342 339 340 339 337 338 338 337 338 337 336 337 340 342 341 339 338 337 336 335 334 334 333 333 333 332 332 332 333 334 333 333 333 334 335 336 337 338 338 337 338 337 336 335 335 335 336 336 336 335
356 357 356 354 349 349 351 349 347 347 348 349 347 344 343 342 340 338 338 337 336 336 336 335 336 337 340 341 338 336 336 336 335 334 333 331 331 331 330 330 330 331 332 332 332 333 334 335 336 337 338 338 338 339 338 336 334 334 334 335 335 335 334
358 358 357 354 351 351 351 350 350 351 350 349 348 347 346 344 342 340 339 338 336 334 334 336 336 336 338 338 336 335 336 336 335 333 332 330 330 329 329 329 329 330 330 331 331 332 332 333 335 336 337 337 337 338 338 337 335 335 335 335 335 335 333
358 359 357 355 353 352 352 352 353 353 351 349 348 348 347 346 344 341 340 339 336 334 334 336 337 337 336 335 333 334 335 335 334 333 331 330 330 329 329 329 329 329 329 329 329 330 330 332 333 335 337 338 338 337 338 337 336 336 336 335 335 334 332
357 358 356 354 354 353 353 354 353 353 351 349 348 347 346 345 343 340 341 340 338 336 337 338 338 339 337 334 332 333 335 334 333 332 331 330 330 330 330 329 329 329 329 328 328 328 329 331 333 335 336 338 338 337 337 337 337 336 336 336 335 333 332
355 356 354 354 353 353 354 353 352 352 350 348 347 346 345 344 341 340 342 341 338 337 338 338 339 340 338 335 334 334 335 333 332 332 331 331 331 331 330 330 329 329 329 329 329 328 329 331 332 333 334 335 336 336 337 338 338 337 336 336 334 332 332
354 353 353 353 353 354 354 352 351 352 350 348 347 346 345 343 342 342 343 343 340 338 339 339 340 340 337 335 335 335 334 333 332 332 332 332 331 331 330 330 329 329 328 328 328 328 330 331 331 332 332 333 335 336 337 338 339 338 335 333 332 331 331
353 351 351 352 353 353 352 351 351 351 350 348 346 346 345 344 344 343 343 342 339 338 339 340 341 341 337 335 335 334 334 333 333 332 332 331 331 331 330 329 328 328 327 328 328 329 330 331 331 331 331 332 334 335 336 337 339 338 334 329 328 329 330
351 350 350 350 351 352 351 351 351 351 350 348 346 345 345 345 344 343 342 338 336 338 340 340 342 341 337 335 334 333 333 333 333 332 332 331 331 330 330 329 327 327 327 328 330 330 330 330 331 331 331 332 333 333 334 335 337 338 334 328 326 326 329
350 349 349 350 350 351 350 350 349 350 348 345 344 345 346 346 345 345 343 338 336 338 340 340 341 339 337 335 333 333 333 333 333 333 331 331 331 330 330 328 327 327 327 329 329 329 329 329 330 331 332 333 332 332 331 332 334 335 333 330 327 326 327
348 348 349 349 350 350 350 349 349 349 346 343 343 345 346 346 345 345 343 340 338 340 340 340 339 337 336 335 333 332 333 333 333 333 331 331 331 330 329 328 327 327 327 328 328 328 329 329 329 331 332 332 331 331 331 330 331 333 332 330 328 326 327
346 348 348 347 348 348 348 349 348 347 345 343 343 343 344 345 346 345 343 339 339 342 342 339 338 337 337 336 334 333 333 334 334 333 332 332 331 331 329 327 327 327 327 328 328 328 329 329 329 330 331 330 329 329 330 329 329 330 330 329 328 326 326
346 347 347 347 348 347 348 349 348 346 345 343 342 342 343 347 347 345 341 339 340 343 342 340 338 337 337 336 335 334 334 334 334 333 333 333 332 331 329 327 327 327 327 328 328 328 328 328 328 329 329 328 328 328 328 328 328 327 327 327 327 325 325
344 345 345 347 348 348 350 350 348 347 346 345 344 343 344 347 345 342 339 340 341 343 341 339 337 337 337 336 336 335 335 335 335 334 334 334 332 330 328 327 327 327 328 329 328 327 326 326 326 327 327 327 327 328 328 328 328 327 326 326 326 325 326
342 343 345 347 348 350 351 349 348 348 347 347 348 346 344 344 344 341 338 339 341 342 340 338 336 336 336 337 337 336 335 335 335 335 335 334 332 330 328 327 327 326 328 329 328 326 325 325 325 326 326 326 327 328 329 328 328 327 326 325 326 326 328
341 343 346 346 348 351 351 350 349 348 348 348 348 346 345 344 344 343 341 340 340 340 338 336 336 336 337 338 338 336 335 335 335 336 335 334 332 330 327 327 326 327 328 329 328 326 325 325 326 326 326 326 326 327 328 327 327 327 326 325 325 326 328
341 343 346 347 349 349 350 351 350 349 350 349 348 347 347 345 344 344 343 340 339 338 336 336 337 336 337 338 338 336 336 335 335 336 335 333 332 329 328 328 327 327 328 328 327 326 326 325 326 326 326 326 326 326 327 328 327 327 326 326 325 326 328
342 344 347 347 347 348 350 351 350 349 348 347 347 348 347 346 345 344 342 339 337 337 336 336 338 338 337 338 337 336 336 335 335 336 335 333 332 330 330 329 328 327 327 327 326 325 325 326 326 326 326 326 326 326 327 328 327 327 327 326 326 327 326
343 344 345 344 344 347 348 349 349 348 346 347 349 348 347 346 345 344 343 340 338 338 338 338 339 339 340 340 337 335 335 334 334 335 335 333 332 332 331 330 328 327 327 326 325 325 326 327 327 327 327 326 326 327 328 329 327 327 327 326 325 324 322
342 342 342 342 344 345 345 346 346 346 345 347 348 348 346 345 344 344 344 341 339 339 339 340 341 341 342 341 337 335 334 334 334 335 334 333 334 334 332 330 328 328 327 327 326 327 327 328 328 328 328 327 327 327 328 330 330 328 326 324 322 321 320
343 342 341 342 343 343 343 343 344 344 343 343 345 345 344 343 343 343 343 342 341 340 340 341 342 342 342 340 337 336 335 334 335 335 334 334 334 334 333 331 329 328 328 329 328 328 328 328 328 328 328 327 327 326 327 330 331 330 326 322 320 321 320
344 343 342 340 340 341 341 342 344 344 343 342 342 342 342 342 342 342 341 342 342 342 342 343 342 341 341 340 337 336 335 334 335 335 334 335 336 335 333 330 328 328 329 329 329 328 328 328 328 328 328 327 327 327 327 328 330 331 330 325 321 320 320
345 344 343 341 340 341 340 340 342 343 344 344 343 341 341 340 340 340 340 341 342 343 343 342 341 340 340 338 337 336 335 335 335 334 333 334 335 334 332 329 327 328 328 329 328 328 328 328 328 327 327 327 327 326 326 327 329 331 331 326 321 319 320
345 344 342 341 342 342 340 338 339 340 342 344 343 342 341 340 339 340 341 342 344 344 343 341 341 340 338 337 336 335 334 335 334 332 331 332 332 332 330 328 327 327 328 328 328 327 328 328 327 327 327 326 326 326 325 327 329 329 327 323 320 320 319
345 343 342 343 343 341 340 339 339 339 339 341 343 343 341 340 340 340 341 343 344 343 341 341 340 339 337 336 335 334 334 335 332 330 330 332 332 330 328 327 327 326 327 328 327 327 328 327 327 327 327 325 326 326 325 326 327 326 323 320 320 320 318
345 345 344 343 342 341 341 341 341 340 339 341 342 342 339 338 339 339 340 341 339 337 339 339 338 337 336 335 334 334 334 334 332 330 330 330 330 329 328 328 326 326 328 329 329 328 327 327 328 327 325 325 325 325 325 326 325 322 318 318 319 319 318
343 344 343 343 341 341 341 341 340 339 339 340 340 339 337 336 336 336 336 336 334 335 338 338 336 335 334 334 334 333 332 331 331 330 330 328 328 329 329 327 328 330 329 327 325 324 324 325 326 325 323 324 324 323 323 323 321 318 317 318 318 318 318
341 340 340 339 338 338 339 339 338 337 338 338 337 336 335 335 334 333 332 333 333 335 336 336 335 334 333 332 332 331 330 329 328 328 329 328 327 329 326 324 325 329 327 323 321 321 320 321 322 320 320 322 322 320 318 317 316 316 317 319 318 318 319
338 338 337 336 337 337 338 337 337 337 337 337 336 334 334 334 333 332 332 332 334 335 335 335 334 332 331 330 330 329 328 327 326 327 328 328 327 329 326 322 322 323 322 320 320 319 319 319 319 318 318 319 320 318 316 314 315 316 317 319 319 319 319
338 337 336 335 336 337 337 337 336 336 336 336 335 334 334 333 333 333 333 333 333 333 333 334 334 331 330 330 330 329 328 327 326 327 328 328 329 330 328 324 321 319 318 318 318 318 318 318 317 316 315 316 316 316 315 314 314 315 316 318 319 319 319
Wind_Speed
16 15 14 12 13 13 13 16 17 17 17 17 16 16 15 14 14 12 12 12 11 11 10 8 6 4 4 3 2 2 2 3 3 4 5 6 6 6 7 8 9 9 8 9 9 10 11 11 11 11 10 9 9 8 8 7 7 8 8 9 10 11 11
16 15 14 13 13 13 15 17 18 17 18 17 16 16 16 15 14 13 12 12 12 10 9 7 6 5 4 4 3 3 3 3 4 5 5 6 6 6 7 9 9 9 9 8 9 10 10 11 11 11 10 9 9 8 8 7 7 7 8 8 10 11 11
15 15 14 14 13 13 15 18 18 17 18 17 17 17 16 15 14 13 12 12 11 10 8 7 6 6 5 5 4 4 4 4 5 5 6 6 7 7 8 9 10 10 10 9 9 9 10 10 11 11 11 10 8 8 8 9 9 8 8 9 10 11 11
15 15 15 14 14 14 15 17 18 18 17 17 17 16 15 14 13 12 12 11 10 10 8 8 7 7 6 5 5 5 5 5 5 6 6 7 7 8 8 9 10 10 10 10 10 10 10 11 11 11 11 10 9 9 9 9 10 9 9 9 10 11 12
15 16 15 14 14 13 14 17 18 18 17 17 17 16 15 14 13 12 12 11 10 10 9 8 8 7 7 6 6 6 6 6 6 6 7 7 7 8 8 9 10 10 10 9 9 10 10 11 11 11 11 10 10 10 10 10 10 10 10 10 11 11 12
15 15 14 14 14 13 14 17 19 18 18 17 16 15 14 14 14 13 12 11 11 10 9 9 9 8 7 7 6 6 6 6 6 6 7 7 7 7 8 8 9 9 9 9 10 10 10 11 11 11 11 11 11 11 11 10 10 10 10 10 11 11 12
13 14 15 14 14 14 14 17 19 19 18 16 16 15 14 14 13 13 12 11 12 12 11 10 9 8 8 7 6 7 7 7 7 7 7 7 7 8 8 8 8 8 8 9 10 11 11 11 12 12 12 12 12 11 11 10 10 10 10 10 11 11 12
13 14 14 15 15 15 15 17 19 19 18 17 16 16 15 13 13 12 11 11 11 11 10 10 9 8 8 7 7 7 7 7 7 7 7 8 8 8 8 8 8 8 9 10 10 11 11 12 12 12 12 12 12 11 10 11 10 9 9 10 11 12 12
13 13 14 15 15 14 15 18 19 18 18 17 16 16 15 13 12 11 11 10 10 10 9 9 8 8 7 7 7 8 8 8 7 8 8 8 9 9 9 9 9 8 9 11 11 11 12 12 12 12 12 12 12 11 10 10 10 10 10 10 11 12 13
12 12 13 14 15 14 16 19 19 18 18 17 15 15 14 14 12 11 10 10 10 9 9 9 8 7 7 7 8 8 8 8 8 8 9 9 9 9 9 10 9 9 10 11 12 13 13 13 12 12 12 12 12 11 11 10 10 10 10 10 11 12 13
11 11 12 14 15 15 16 17 17 17 17 16 15 14 14 14 12 12 11 10 9 8 8 8 8 8 8 8 8 8 8 9 9 9 9 9 9 9 10 10 11 11 12 12 13 13 13 13 12 12 12 12 12 12 12 11 11 11 11 10 11 12 13
10 10 12 14 15 15 15 14 15 16 16 16 15 15 14 13 13 12 11 11 10 8 8 8 8 8 8 8 8 8 9 9 9 9 9 9 9 9 10 11 12 12 12 12 13 14 13 13 13 13 13 13 13 13 13 13 13 12 11 11 11 12 13
9 10 11 13 14 14 14 13 14 15 16 16 16 15 14 13 13 12 12 12 10 9 9 9 8 8 8 8 8 8 9 9 9 9 9 9 9 10 11 12 12 13 13 13 14 15 14 14 13 14 13 13 13 14 15 15 14 13 11 10 11 12 12
10 11 11 13 14 15 15 14 14 15 17 17 16 15 14 13 13 12 12 12 11 10 10 9 9 9 9 9 9 9 9 9 9 9 9 9 10 11 11 12 12 13 13 14 15 15 15 14 14 14 13 13 13 14 14 14 14 12 10 9 10 11 11
11 12 13 14 15 15 15 15 14 15 17 17 16 15 14 13 13 13 13 13 11 10 10 9 9 10 9 9 9 9 9 9 9 9 9 10 10 11 11 12 12 13 13 14 15 15 15 15 15 15 14 13 13 13 13 13 12 11 10 10 10 10 11
11 12 13 14 15 15 15 15 15 16 18 17 16 16 15 14 14 14 15 13 12 11 11 10 10 10 10 10 9 9 9 9 9 9 10 10 10 11 12 11 12 13 14 15 15 15 14 14 15 14 14 13 12 12 12 11 11 12 12 12 11 10 10
11 12 13 14 14 14 15 15 15 16 18 18 17 16 15 15 15 16 15 14 13 12 11 11 11 11 11 10 9 9 9 9 9 9 10 11 10 11 12 11 11 13 14 14 14 14 14 14 14 14 13 13 12 11 12 11 11 13 14 12 11 10 10
11 12 13 14 14 15 15 16 15 16 18 19 18 17 16 16 15 15 15 14 13 11 11 11 12 11 11 10 9 9 9 9 9 10 10 11 11 11 11 10 12 13 14 13 13 13 14 14 14 14 13 12 12 12 12 12 12 14 14 12 11 11 11
10 11 12 13 14 15 15 16 16 18 19 19 19 19 18 17 17 16 15 14 13 12 11 11 12 11 11 10 10 10 9 10 10 10 11 11 10 11 10 10 11 12 12 12 12 12 13 13 13 13 12 12 13 13 13 13 13 14 15 13 12 12 12
9 9 11 12 13 14 14 14 16 18 20 19 19 19 18 17 17 16 15 14 13 13 12 12 12 11 11 11 10 10 10 10 11 11 11 11 11 10 10 10 11 11 11 11 11 12 12 12 13 13 13 13 14 14 13 13 13 14 15 13 11 12 13
8 9 10 10 12 12 13 14 16 17 19 19 19 18 17 17 17 16 15 14 14 13 13 12 12 12 12 11 10 11 11 11 11 12 11 11 11 10 10 10 10 10 10 10 10 11 12 12 13 13 13 13 13 14 14 14 13 14 15 12 11 11 12
7 8 9 10 11 13 15 17 17 18 19 19 17 17 17 17 17 16 16 15 15 14 13 13 13 13 12 11 11 11 11 11 11 11 11 11 10 10 10 10 10 10 10 10 10 11 11 12 12 12 13 13 13 14 14 14 14 15 15 12 11 11 12
6 8 9 10 12 14 15 17 18 18 18 17 16 17 17 16 16 16 16 16 15 14 14 13 13 14 13 12 12 11 11 11 11 11 11 11 10 10 10 10 10 10 10 10 10 11 11 11 12 12 13 14 13 13 13 14 14 15 15 13 12 12 13
5 7 9 10 12 13 14 15 16 16 16 15 16 17 17 16 15 15 15 16 16 15 15 14 14 14 14 13 12 11 10 11 11 12 12 11 11 10 10 10 10 10 10 10 11 11 11 11 11 12 13 14 14 13 13 15 14 14 15 13 12 13 15
5 7 9 10 11 12 13 13 13 13 13 14 15 16 15 14 15 14 15 16 17 16 16 15 15 15 14 13 11 10 10 11 12 12 12 12 11 11 10 10 10 10 9 10 10 10 10 11 12 13 14 14 14 13 12 13 13 13 14 13 11 14 15
6 7 9 9 10 10 11 11 12 12 13 15 15 14 13 13 14 15 16 17 17 18 17 16 15 14 13 12 11 10 10 11 12 12 12 13 12 11 11 10 10 10 9 10 11 10 10 11 13 14 14 14 14 13 12 12 12 12 12 11 10 11 13
8 8 8 9 9 9 9 10 11 13 14 13 11 10 11 13 13 14 16 16 17 19 19 16 14 13 12 12 11 11 11 10 11 11 12 13 12 12 11 10 10 10 9 10 10 9 10 12 13 14 14 14 14 13 11 11 12 11 10 10 8 8 10
9 8 8 8 9 9 9 9 10 12 13 10 8 9 11 12 13 14 14 15 18 20 18 14 13 13 13 11 11 11 11 10 10 10 11 12 13 12 12 11 10 10 10 9 9 9 10 11 12 13 14 14 13 13 10 9 11 11 9 8 8 7 8
8 8 8 9 8 8 8 8 8 9 10 8 8 9 10 11 12 13 13 15 19 20 17 15 14 14 13 11 11 11 11 10 9 9 10 11 13 13 13 12 11 10 9 8 8 8 9 11 11 12 14 13 13 13 10 7 9 10 9 8 8 8 9
7 7 7 8 8 7 6 6 6 6 6 6 7 8 9 10 12 12 14 17 19 17 16 16 15 14 12 11 11 12 11 10 9 9 9 11 12 13 14 12 11 10 9 8 8 8 9 11 11 11 13 13 13 13 11 9 8 9 10 11 11 10 10
7 6 6 6 6 5 5 5 5 6 6 6 8 9 10 11 12 13 16 17 16 15 16 16 15 14 12 11 11 12 11 10 9 8 9 11 12 14 14 13 12 11 9 8 8 8 9 10 11 11 12 12 12 12 11 10 9 7 9 13 13 11 11
6 6 6 5 5 4 3 4 5 7 8 8 9 10 11 12 13 14 15 14 13 14 15 14 13 12 11 11 11 11 11 10 9 8 9 11 14 14 14 13 12 10 9 8 8 8 8 10 11 11 11 11 12 12 11 11 9 7 10 15 15 12 11
7 6 5 5 5 4 3 3 5 6 7 7 7 8 9 10 11 12 12 11 11 12 12 11 11 10 10 11 11 11 11 10 9 8 9 11 14 15 14 13 12 11 10 9 9 9 8 9 10 10 10 11 11 11 11 10 9 9 13 18 18 16 14
7 6 6 6 5 3 1 1 3 4 5 5 4 4 6 7 8 9 9 10 10 10 9 10 10 10 10 11 11 10 10 9 8 7 9 12 14 12 10 10 10 9 7 6 6 7 7 8 8 8 9 10 10 10 11 10 8 10 16 20 20 17 15
6 6 6 6 5 4 3 2 2 3 4 3 2 3 4 5 6 7 8 8 8 8 8 8 9 9 9 9 10 10 9 8 9 9 9 11 12 7 4 4 5 3 4 5 6 6 6 6 5 5 7 8 7 7 8 8 9 12 17 18 16 14 11
6 6 6 6 5 4 4 3 2 2 2 1 1 2 3 3 4 5 6 6 6 7 7 8 8 8 9 10 11 11 10 8 9 9 8 10 10 6 7 4 5 5 5 5 5 5 5 5 4 4 4 4 5 7 8 8 10 13 16 15 12 9 8
5 5 5 5 4 4 3 2 1 0 0 1 1 2 3 4 4 5 5 5 5 6 7 7 8 8 10 10 10 9 8 8 10 9 8 10 9 6 9 7 6 6 5 4 4 3 3 3 2 2 2 2 2 4 7 9 10 12 14 13 9 7 7
6 5 5 4 4 4 3 3 2 2 1 1 1 2 3 3 3 3 4 4 4 5 6 7 8 9 10 10 9 7 8 10 11 10 9 10 9 8 10 10 8 7 5 4 3 3 1 0 1 2 4 5 4 3 5 9 11 12 12 11 9 7 6
Wind_Direction
190 189 189 186 186 187 185 181 178 176 177 178 177 178 180 182 184 185 188 193 195 190 186 186 188 200 217 226 245 279 294 299 292 292 297 297 297 299 300 303 302 301 303 306 311 313 315 316 314 314 314 308 305 301 298 299 299 300 298 294 294 290 284
191 187 186 185 186 187 182 179 179 176 177 178 178 179 182 183 186 190 192 194 196 192 187 190 199 210 221 231 246 262 272 277 277 285 291 292 295 299 298 299 298 296 297 298 303 308 311 312 311 312 313 308 305 302 302 304 301 301 302 299 297 294 290
193 187 184 185 186 185 179 178 179 178 178 179 179 180 183 184 187 193 194 194 195 192 191 198 207 217 223 231 244 254 261 268 274 283 290 295 300 305 303 300 298 296 294 294 299 306 308 309 308 308 309 308 305 302 303 306 305 304 304 302 300 299 299
194 186 181 183 186 184 179 177 180 182 181 181 180 180 181 183 188 194 197 197 198 199 201 207 212 218 224 230 244 255 257 264 274 282 290 296 299 304 307 307 306 302 298 298 301 304 306 307 307 306 306 306 304 303 303 305 307 307 306 309 309 305 302
191 185 180 182 186 184 179 178 181 183 184 183 179 178 179 184 191 195 196 198 203 207 209 211 214 221 226 231 243 253 256 262 270 278 286 291 293 298 304 307 311 309 304 303 302 302 303 306 308 309 307 305 303 307 307 305 307 308 309 310 309 308 306
188 186 182 182 185 184 180 180 182 184 186 184 178 177 182 188 195 197 195 197 205 210 211 213 217 223 229 235 242 248 253 257 262 270 280 282 282 288 296 304 310 311 308 306 304 304 302 303 307 307 307 307 306 309 312 311 310 309 309 308 307 307 308
189 186 184 184 185 184 182 182 184 185 187 184 178 180 186 192 197 198 197 200 207 211 213 217 221 225 231 236 242 248 250 252 257 266 273 274 274 279 286 293 300 305 306 305 305 306 304 304 305 302 301 302 303 306 310 311 310 308 306 305 305 306 307
189 187 187 184 185 185 182 183 185 185 185 183 180 184 188 192 195 197 199 207 213 215 220 226 224 223 231 238 244 250 250 249 254 263 270 272 273 275 281 286 292 300 304 306 307 307 305 305 305 300 297 295 295 297 302 307 307 306 304 302 303 307 310
187 188 189 184 184 184 181 182 184 181 178 178 181 184 184 187 194 198 202 213 218 220 229 238 233 223 228 239 247 251 249 248 255 264 270 273 274 277 283 289 293 297 301 306 308 306 304 303 301 298 294 290 289 287 291 300 304 303 303 302 304 308 310
183 185 185 183 183 181 180 181 179 174 172 174 179 181 180 185 194 198 205 217 225 227 233 240 240 234 232 241 250 251 248 248 256 266 271 275 277 280 287 294 299 302 303 306 308 306 304 300 297 295 292 288 287 283 282 291 296 299 301 304 306 307 308
182 182 180 181 181 181 181 178 172 169 169 172 178 181 181 185 190 195 206 220 227 233 236 235 237 239 240 245 252 251 248 250 257 265 271 275 279 285 292 300 304 304 304 304 306 305 303 298 294 291 287 286 286 282 280 284 288 290 295 301 305 306 307
182 179 179 181 181 181 181 175 167 166 167 172 180 184 183 184 189 195 206 219 225 233 237 235 235 241 244 250 255 253 249 252 257 265 270 273 279 287 294 299 300 301 303 306 307 307 304 301 297 291 286 282 283 282 279 280 282 282 286 295 302 306 307
186 181 180 180 181 180 179 173 165 165 169 174 182 186 183 184 190 196 206 217 222 227 231 232 233 238 243 251 256 253 251 254 258 264 269 274 279 286 291 295 297 299 302 305 306 305 304 304 301 295 289 284 283 283 281 279 278 275 277 285 296 304 305
190 188 185 182 184 184 180 174 167 168 174 178 183 186 183 186 192 197 209 216 218 224 229 228 227 231 238 246 250 250 252 256 260 262 267 275 282 287 292 296 297 296 296 298 301 302 303 305 304 300 295 290 287 287 286 282 276 271 271 279 293 302 303
193 191 189 187 188 187 183 177 171 170 174 178 183 185 184 187 191 198 210 215 215 223 228 223 222 228 235 239 243 247 250 254 258 261 267 275 282 290 296 298 296 295 294 295 297 298 300 302 304 303 299 295 291 289 288 284 276 269 267 277 293 300 301
198 195 194 192 190 189 186 179 172 171 173 177 183 186 186 188 193 202 211 213 215 222 224 220 220 224 230 235 239 244 248 251 253 258 266 274 283 293 298 297 296 297 297 297 295 295 298 300 302 302 301 299 297 293 292 288 277 270 270 283 297 298 299
204 201 198 196 192 189 186 179 172 171 174 177 182 186 189 192 198 207 213 215 219 221 219 217 219 222 227 232 236 239 244 248 251 258 266 274 285 294 295 294 297 300 300 299 297 295 298 300 300 301 302 301 299 298 298 295 283 275 278 289 298 298 296
209 204 198 194 191 188 184 179 174 174 175 179 183 189 193 196 201 207 210 214 220 221 217 215 217 222 225 228 232 235 241 246 250 257 264 274 289 295 293 292 297 302 302 299 298 298 299 300 300 301 300 297 297 298 301 303 297 290 288 289 294 297 296
214 206 199 195 191 188 184 180 178 177 177 181 186 192 197 199 203 206 207 211 216 217 217 216 218 222 224 226 230 233 240 245 249 258 266 275 288 291 289 293 298 302 302 298 298 298 299 300 301 300 298 297 297 298 301 307 309 302 295 290 289 294 296
219 208 201 198 191 188 185 181 180 179 179 184 192 197 201 203 205 205 205 209 213 213 215 218 220 222 223 224 228 232 240 246 251 260 267 275 283 284 285 291 296 301 302 300 300 300 301 304 305 303 302 300 299 300 302 306 308 305 298 290 284 291 298
215 207 201 196 190 186 182 179 179 179 182 191 198 200 201 203 204 205 205 208 210 210 212 217 220 223 223 224 228 233 240 246 253 261 267 271 274 277 281 286 292 299 301 302 303 305 306 307 307 307 306 304 302 302 303 305 306 306 300 286 277 288 298
201 201 198 191 188 184 180 179 180 181 186 194 198 200 202 204 205 207 207 208 209 209 211 215 220 223 224 224 228 233 238 247 256 260 263 265 266 271 279 285 291 298 300 300 303 305 307 309 311 312 311 310 307 303 303 305 305 305 301 284 273 284 292
185 188 188 186 186 183 179 181 184 187 190 194 196 201 206 207 206 207 208 209 210 210 211 215 221 224 226 226 228 233 240 249 256 256 257 259 260 268 276 281 289 296 296 297 301 305 308 310 313 315 314 312 309 303 304 307 305 304 301 287 273 280 288
171 172 175 179 179 177 178 184 189 192 194 196 201 207 210 208 205 202 203 208 212 213 213 217 222 225 228 229 229 233 241 249 252 251 252 254 256 264 273 278 286 292 292 293 298 302 305 308 310 314 314 312 310 308 307 308 306 303 301 292 276 276 285
155 156 163 171 175 175 178 183 187 191 194 201 210 212 208 206 204 202 205 211 217 219 220 220 220 223 228 229 230 234 239 246 248 246 248 250 252 260 269 276 282 286 286 289 292 295 300 305 310 312 312 312 312 310 306 305 307 305 302 297 282 278 285
153 154 159 166 170 171 173 178 183 192 201 211 219 216 208 204 206 209 212 215 220 225 225 221 218 222 228 230 232 233 235 239 242 242 244 247 249 256 264 271 278 282 284 288 292 297 303 308 311 311 312 313 313 313 310 307 308 306 301 298 290 286 292
151 157 162 164 163 163 171 182 193 204 212 217 219 211 202 202 207 212 213 212 219 227 228 221 215 217 222 227 232 233 233 235 238 240 243 245 248 252 258 264 271 274 276 283 291 298 302 306 310 310 312 314 312 313 313 307 305 303 298 296 294 297 307
149 156 158 156 158 167 183 195 206 216 221 220 213 204 200 203 210 215 214 212 219 227 228 219 212 212 216 224 233 234 231 233 236 239 243 246 245 245 251 259 261 262 266 276 288 295 297 304 309 307 309 311 311 312 313 305 301 302 299 297 297 302 314
151 158 161 163 167 177 193 205 212 224 232 227 216 208 202 205 213 218 219 219 223 225 222 214 211 211 215 224 232 231 230 231 231 234 243 247 244 242 247 251 251 251 256 265 279 289 294 300 303 303 305 310 313 316 317 311 303 298 297 306 308 305 311
151 159 169 177 176 175 191 210 221 233 238 223 208 203 202 209 217 221 224 228 228 222 212 207 210 213 217 223 228 227 228 229 230 236 246 250 245 242 243 244 244 246 249 256 269 282 292 297 299 301 305 311 315 318 321 324 316 301 298 310 313 308 311
147 152 158 167 166 163 190 224 235 239 236 221 211 211 212 215 219 223 228 232 228 214 206 206 209 212 215 220 223 224 227 230 232 236 246 252 249 242 237 236 239 242 243 248 259 271 283 292 297 301 305 310 316 321 326 329 327 319 316 320 321 317 315
140 146 153 160 161 167 203 235 244 246 246 237 225 221 221 219 221 228 233 231 219 209 207 207 207 208 212 216 219 224 228 230 230 231 241 249 247 238 233 234 239 243 243 246 255 263 275 287 294 300 306 311 316 323 329 330 332 337 334 330 332 332 324
139 142 147 148 149 161 198 237 254 263 268 262 243 233 234 232 230 233 231 222 213 209 206 204 203 201 204 212 220 227 229 228 229 236 247 249 241 233 231 232 236 241 240 245 256 263 272 286 294 300 307 312 317 323 326 330 340 348 341 336 336 335 332
136 134 127 122 127 139 165 261 292 304 309 304 280 258 259 255 246 238 228 222 223 216 202 198 201 203 209 219 225 229 228 227 230 237 248 250 242 236 235 236 240 244 234 226 245 262 274 288 296 302 309 313 320 326 326 333 350 350 340 337 334 330 331
120 115 109 107 106 95 79 43 360 344 334 323 311 292 280 270 261 250 235 228 226 214 200 200 204 210 219 225 227 230 229 232 241 241 242 244 236 213 194 230 238 216 191 203 227 250 266 278 288 304 316 323 336 343 340 340 343 339 336 336 334 330 334
114 107 101 99 94 85 79 66 34 1 336 318 294 278 269 257 255 255 245 231 216 204 204 211 214 219 228 231 236 240 234 237 251 248 238 245 236 181 144 177 196 174 183 216 232 243 255 261 266 288 312 330 340 342 345 345 337 334 338 341 339 337 347
119 113 107 106 104 103 106 107 110 148 213 244 249 250 251 243 237 238 234 223 212 209 213 216 219 230 239 239 238 235 230 244 263 257 237 245 242 182 140 144 163 166 182 202 199 205 238 252 265 304 346 35 17 333 336 345 345 342 341 340 336 337 347
112 115 121 127 130 132 137 142 147 151 150 181 238 252 258 254 243 237 231 219 216 221 222 221 227 239 246 243 235 224 226 244 257 253 240 238 228 185 156 151 145 131 127 145 161 169 186 236 354 17 32 54 71 50 356 351 353 350 342 334 328 323 331